Retour au catalogue

CZ-6A DEB

ActifPO
NORAD 61309·DEBRIS·🇨🇳 China

Lancé Aug 6, 2024 depuis Taiyuan Satellite Launch Center

Loading…

Prochains Passages (prochaines 24 heures)

TLE

FraisSource: Space-Track

Époque: Sep 14, 2026, 23:07 UTC

1 61309U 24140TW  26257.96330230  .00002042  00000-0  77549-3 0  9991
2 61309  88.9721 261.1497 0021613 195.6937 164.3592 14.30597540106745

Suivez CZ-6A DEB en temps réel avec AllMySat

Download on the App Store